Regional Weather Roundup
Issued by NWS

Home | Current Version | Previous Version | Graphics & Text | Print | Product List | Glossary Off
Versions: 1 2 3 4 5 6 7 8 9 10 11 12 13 14 15 16 17 18 19 20 21 22 23 24 25 26 27 28 29 30 31 32 33 34 35 36 37 38 39 40 41 42 43 44 45 46 47 48 49 50

000
ASUS43 KTOP 300408
RWRKS

WEATHER ROUNDUP FOR KANSAS
NATIONAL WEATHER SERVICE GOODLAND KS
1100 PM CDT MON AUG 29 2016

NOTE:  "FAIR" INDICATES FEW OR NO CLOUDS BELOW 12,000 FEET WITH NO
SIGNIFICANT WEATHER AND/OR OBSTRUCTIONS TO VISIBILITY.

KSZ001>006-013>018-027>032-041>047-300500-
NORTHWEST KANSAS

CITY           SKY/WX    TMP DP  RH WIND       PRES   REMARKS
GOODLAND       PTCLDY    66  61  84 SE5       30.27S
HAYS           PTCLDY    68  61  77 CALM      30.22R
HILL CITY      CLOUDY    68  66  93 CALM      30.22S
RUSSELL        CLOUDY    69  67  93 CALM      30.19R
$$

KSZ061>065-074>080-084>089-300500-
SOUTHWEST KANSAS

CITY           SKY/WX    TMP DP  RH WIND       PRES   REMARKS
DODGE CITY     MOCLDY    69  67  93 CALM      30.22R
ELKHART          N/A     66  62  87 SE5         N/A
GARDEN CITY    CLOUDY    68  65  90 E5        30.24R
GREAT BEND     CLOUDY    70  63  78 CALM      30.19R
LIBERAL        MOCLDY    70  64  83 CALM      30.26R
PRATT          CLOUDY    67  66  95 NE5       30.20R
$$

KSZ066>073-081>083-090>101-300500-
SOUTHEAST KANSAS

CITY           SKY/WX    TMP DP  RH WIND       PRES   REMARKS
CHANUTE        LGT RAIN  75  71  87 CALM      30.15F
COFFEYVILLE    CLOUDY    73  71  93 CALM      30.14R
HUTCHINSON     CLOUDY    73  69  87 NE6       30.17S
MEDICINE LODGE   N/A     72  69  90 NW3       30.17R
NEWTON         CLOUDY    74  70  87 E6        30.18R
PARSONS        LGT RAIN  73  70  90 CALM      30.16R
WICHITA INTL   MOCLDY    78  68  71 CALM      30.15S
WICHITA JABRA  PTCLDY    74  70  87 CALM      30.16S
WICHITA MCCONL CLOUDY    79  67  67 E6        30.15F
WINFIELD       CLOUDY    79  69  71 E5        30.16R
$$

KSZ007>012-019>026-033>040-048>060-102>105-300500-
NORTHEAST KANSAS

CITY           SKY/WX    TMP DP  RH WIND       PRES   REMARKS
CONCORDIA      CLOUDY    70  67  90 NE5       30.19S
EMPORIA        CLOUDY    75  72  90 S3        30.16S
LAWRENCE       MOCLDY    73  73 100 CALM      30.15S
MANHATTAN      PTCLDY    73  68  84 N3        30.16R
MARYSVILLE     CLOUDY    72  70  94 NE6       30.20F
OLATHE IND     CLOUDY    79  74  84 CALM      30.17R
OLATHE EXE     PTCLDY    79  72  79 CALM      30.16S
SALINA         CLOUDY    73  71  93 N5        30.18R
TOPEKA BILLARD PTCLDY    78  74  87 CALM      30.15S
TOPEKA FORBES  CLOUDY    79  72  79 CALM      30.15F
$$




USA.gov is the U.S. government's official web portal to all federal, state and local government web resources and services.